Temperature
20 20 20 20 18 18 19 20 20 21 20 20 20 20 19 18 18 17 17 17 18 18 18 18 18 18 18 18 18 18 18 18 18 18 18 18 18 18 18 18 18 18 18 18 18 17 17 17 18
20 20 20 20 17 18 19 20 20 21 21 21 20 19 19 18 17 17 17 17 18 18 18 18 18 18 18 18 18 18 18 18 18 17 17 17 17 17 17 17 17 17 17 17 17 17 17 17 17
20 20 20 17 18 19 20 20 20 21 21 21 20 19 18 18 17 17 17 17 18 18 18 18 18 18 18 18 18 18 18 18 17 17 17 17 17 17 17 17 17 17 17 17 17 17 17 17 17
20 20 19 18 19 19 20 20 20 21 21 20 19 18 18 18 18 17 17 18 18 18 18 18 18 18 18 18 18 18 17 17 17 17 17 17 17 17 17 16 16 16 17 17 17 17 17 17 17
20 20 18 18 19 20 20 20 21 20 20 19 19 18 17 18 18 18 18 18 18 18 17 17 18 18 18 18 17 17 17 17 17 17 17 16 16 16 16 16 16 16 16 16 17 17 17 17 17
20 18 17 18 19 20 20 20 20 20 19 19 18 17 17 17 18 17 18 18 18 18 17 17 17 18 18 17 17 17 17 17 17 16 16 16 16 16 16 16 16 16 16 16 16 16 16 17 17
20 17 18 18 19 19 20 20 20 19 19 19 19 17 17 17 18 18 18 18 18 18 18 17 17 17 17 17 17 17 17 17 16 16 16 16 16 16 16 16 16 16 16 16 16 16 16 16 17
20 17 18 18 18 19 20 21 20 20 19 19 19 18 17 17 18 18 17 17 17 17 17 17 17 17 17 17 17 17 17 16 16 16 16 16 16 16 16 16 16 16 16 16 16 16 16 16 16
20 16 17 18 18 19 20 20 20 20 20 19 19 18 18 18 18 17 17 17 17 17 17 17 17 17 17 17 17 16 16 16 16 16 16 16 16 16 16 16 16 16 16 16 16 16 16 16 16
20 17 18 19 19 19 20 20 20 19 19 18 18 18 18 18 18 18 18 17 17 17 17 17 17 17 17 17 17 16 16 16 16 16 16 16 16 16 16 15 15 15 16 16 16 16 16 16 16
19 18 19 19 20 20 20 20 20 19 18 18 18 18 18 18 18 18 18 18 18 18 18 17 17 17 17 17 17 16 16 16 16 16 16 16 16 16 16 15 15 15 15 16 16 16 16 16 16
19 19 20 20 20 20 20 20 19 19 19 19 19 18 18 18 18 18 18 18 18 18 18 17 17 17 17 17 17 17 16 16 16 16 16 16 16 16 15 15 15 15 15 15 16 16 16 16 16
19 19 20 20 20 20 20 20 19 19 19 19 19 18 18 18 18 18 18 18 18 18 18 17 17 17 17 17 17 17 16 16 16 16 16 16 16 15 15 15 15 15 15 15 15 16 16 16 16
20 20 20 20 20 20 20 19 19 19 19 19 19 18 18 18 18 18 18 18 18 18 18 17 17 17 17 17 17 16 16 16 16 16 16 16 15 15 15 15 15 15 15 15 15 15 15 16 16
20 19 19 19 20 20 20 19 19 19 19 19 18 19 19 19 18 18 18 18 18 18 18 17 17 17 17 17 17 16 16 16 16 16 16 15 15 15 15 15 15 15 15 15 15 15 15 16 16
19 19 18 19 20 20 19 18 18 19 19 19 19 18 19 19 19 18 18 18 18 18 18 17 17 17 17 17 16 16 16 16 16 16 15 15 15 15 15 15 15 15 15 15 15 15 15 16 16
18 18 18 19 20 20 19 18 18 19 19 19 19 19 19 19 19 18 18 18 18 18 18 17 17 17 17 17 16 16 16 16 16 15 15 15 15 15 15 15 15 15 15 15 15 15 16 16 16
18 18 18 19 19 19 18 18 18 19 19 19 19 19 19 19 19 19 18 18 18 18 18 17 17 17 17 16 16 16 16 16 15 15 15 15 15 15 15 15 15 15 15 15 15 15 15 16 16
19 18 18 19 20 19 18 18 18 19 18 18 18 19 19 19 19 19 18 18 18 18 18 17 17 17 17 16 16 16 16 15 15 15 15 15 15 15 15 15 15 15 15 15 15 15 15 16 16
19 18 18 19 20 19 18 18 18 18 18 19 19 19 19 18 19 18 18 18 18 18 18 17 17 17 17 16 16 16 16 15 15 15 15 15 15 15 15 15 15 15 15 15 15 15 15 15 15
19 19 19 19 19 19 19 18 18 18 19 19 19 19 19 19 19 18 18 18 18 18 18 17 17 17 17 16 16 16 16 15 15 15 15 15 15 15 15 15 15 15 15 15 15 15 15 15 15
19 20 20 19 18 17 18 17 17 17 18 18 18 18 18 19 19 18 18 18 18 18 18 17 17 17 17 16 16 16 16 16 15 15 15 15 15 15 15 15 15 14 14 15 15 15 15 15 15
20 20 20 19 18 17 18 17 17 17 17 17 18 18 18 19 19 19 19 18 18 18 18 17 17 17 17 16 16 16 16 16 15 15 15 15 15 15 15 15 15 14 14 14 15 14 14 15 15
20 20 19 17 16 17 17 17 17 16 17 18 18 18 18 18 19 18 18 18 18 18 18 17 17 17 17 16 16 16 16 16 16 16 15 15 15 15 15 15 15 14 14 14 14 14 14 14 14
19 17 17 17 16 16 17 18 17 18 18 19 18 18 18 18 18 18 18 18 18 18 17 17 17 17 17 16 16 16 16 16 16 16 15 15 15 15 15 15 15 14 14 14 14 14 14 14 14
19 17 17 17 16 17 18 18 18 19 20 20 19 19 18 18 18 18 18 18 18 18 17 17 17 17 17 17 16 16 16 16 16 16 15 15 15 15 15 14 14 14 14 14 14 14 14 14 14
19 17 17 16 17 17 17 18 18 19 19 19 19 18 18 18 18 18 18 18 18 18 18 17 17 17 17 17 16 16 16 16 16 15 15 15 15 15 14 14 14 14 14 14 14 14 14 14 14
19 18 16 17 17 17 17 18 17 18 18 18 18 18 18 18 18 18 18 18 18 18 17 17 17 17 17 16 16 16 16 16 16 15 15 15 15 15 15 14 14 14 14 14 14 14 14 14 13
19 19 17 16 16 16 17 17 19 18 18 18 18 18 18 18 18 18 18 18 18 18 17 17 17 17 16 16 16 16 16 16 15 15 15 15 15 15 14 14 14 14 14 14 14 13 13 13 13
19 19 17 17 17 16 16 17 20 19 19 19 18 18 18 19 19 18 18 18 17 17 17 17 17 17 16 16 16 16 16 16 15 15 15 15 15 14 14 14 14 14 14 13 13 13 13 13 13
Wind_Speed
5 4 2 3 4 4 2 1 2 2 4 5 9 9 8 6 5 7 3 6 8 7 9 11 13 14 15 15 15 15 15 15 15 14 14 14 14 13 12 12 11 11 10 9 9 8 8 7 7
3 2 3 4 4 3 1 0 4 5 8 8 9 8 8 7 6 7 5 7 9 9 9 11 13 14 15 15 15 15 15 15 14 14 13 13 13 12 11 10 10 10 9 9 8 7 7 6 6
3 1 3 3 3 3 3 2 5 6 7 5 6 6 5 5 5 4 6 9 10 9 10 12 14 15 15 15 15 14 14 14 13 13 12 12 11 10 10 9 9 9 8 8 7 7 6 6 6
2 4 4 4 3 1 4 4 6 7 6 7 7 6 4 3 4 7 10 10 11 8 10 13 14 14 14 14 14 13 13 12 12 11 11 10 9 9 8 8 8 7 7 7 6 6 6 6 6
3 4 4 3 2 1 2 3 6 8 5 7 8 6 4 3 10 12 11 11 11 8 9 12 14 14 13 13 13 12 12 11 10 9 9 8 8 8 7 7 7 6 6 5 5 5 4 5 5
4 4 4 3 2 2 3 4 7 11 9 8 8 6 3 5 10 10 10 10 10 9 9 11 13 13 13 12 12 11 10 9 8 8 7 6 6 5 5 5 5 5 4 4 3 3 4 4 5
4 4 3 3 3 3 3 3 5 7 6 4 5 6 5 5 8 10 10 9 8 8 8 8 10 11 12 11 10 10 8 7 6 5 4 4 3 3 3 3 3 3 3 3 3 3 4 5 5
4 4 3 2 3 2 2 3 5 6 5 5 4 7 6 7 7 9 9 8 8 6 6 6 7 8 8 8 9 8 6 5 3 2 1 1 1 2 2 1 1 1 2 3 3 4 5 5 5
4 5 3 2 3 2 3 5 4 5 7 4 4 5 9 11 9 9 8 6 6 6 5 5 5 6 6 6 5 5 3 2 0 1 1 1 1 1 1 2 2 2 3 4 5 6 6 6 5
4 4 2 2 3 3 2 4 5 5 8 6 8 9 10 10 10 9 9 8 6 6 5 5 5 5 6 5 4 2 1 1 1 1 1 0 1 1 1 2 2 3 5 5 6 7 7 6 5
3 4 3 2 4 4 3 4 4 7 6 8 13 13 11 10 9 9 8 7 7 6 5 5 4 5 5 3 4 2 1 2 3 3 2 3 3 3 3 3 4 5 5 5 6 6 6 5 4
4 2 3 3 3 3 3 4 5 5 7 10 12 13 10 10 9 8 7 6 6 6 5 5 4 4 4 5 4 3 3 3 4 5 6 6 4 3 3 3 4 4 4 4 4 4 5 5 4
3 2 4 4 5 4 6 6 6 6 8 11 11 11 10 10 8 6 6 6 6 6 5 4 4 5 4 4 3 4 4 5 6 7 8 8 4 2 3 3 4 4 4 3 3 3 4 4 4
3 4 5 5 4 4 8 5 6 6 9 11 11 10 10 10 8 7 7 7 6 6 5 4 5 5 5 4 3 4 5 7 8 8 7 9 7 5 3 3 4 5 5 4 4 3 3 3 3
4 6 5 3 3 3 8 5 5 8 10 11 9 8 8 8 9 9 8 8 7 6 5 5 5 5 6 5 5 6 6 8 8 7 9 9 8 7 5 3 3 4 6 7 5 5 4 4 4
3 3 2 1 2 2 6 4 3 7 11 9 8 8 8 8 8 8 8 7 6 6 5 5 6 6 6 6 6 6 7 8 7 8 9 9 9 8 6 4 3 5 7 6 3 3 3 4 4
3 2 2 1 1 2 5 5 4 6 10 10 9 8 9 8 7 7 8 7 6 7 7 7 6 6 6 6 6 6 7 7 7 8 8 8 9 9 7 4 4 6 5 4 3 4 3 3 4
3 3 2 2 2 3 5 5 5 6 9 9 9 8 8 8 8 7 7 8 7 7 7 7 6 6 6 5 5 5 5 4 6 7 7 8 8 9 7 5 5 6 4 4 4 4 4 3 2
4 4 2 2 3 4 5 5 7 7 8 8 8 8 8 8 6 6 7 7 7 7 7 7 6 5 5 4 4 4 2 2 3 4 7 8 8 7 7 4 4 4 4 4 4 3 5 4 3
4 3 2 1 2 3 4 4 6 7 10 11 11 10 10 8 6 6 6 6 6 7 7 7 6 5 4 3 3 3 3 2 1 3 5 7 8 7 5 4 3 3 4 5 5 4 3 4 4
3 4 3 4 2 3 4 1 3 4 5 8 9 10 10 11 10 8 7 7 7 7 7 7 5 5 4 4 4 4 4 3 3 3 3 4 7 7 6 5 4 4 3 3 3 3 3 3 4
3 5 6 5 4 1 3 2 5 5 5 7 9 9 10 10 10 9 8 7 7 7 7 7 5 5 5 6 6 6 4 2 1 0 1 3 6 6 6 6 6 4 3 3 3 3 2 3 3
4 5 5 4 4 1 1 2 5 4 7 9 10 12 11 11 11 10 9 8 7 7 7 7 6 5 5 6 7 6 4 2 1 2 2 3 4 6 6 6 6 4 4 4 4 4 4 3 2
4 5 5 5 4 1 4 4 4 5 10 10 11 13 13 12 11 10 8 8 7 6 6 6 7 5 5 6 6 7 6 5 4 3 3 2 2 3 5 6 6 5 4 4 4 4 5 4 3
5 5 3 3 2 4 4 3 7 8 9 12 14 15 13 12 11 11 10 9 8 7 6 6 7 5 5 5 5 6 6 6 5 3 2 2 1 2 2 3 4 3 4 4 4 5 5 4 4
3 6 5 4 3 3 2 4 6 6 6 9 12 13 13 12 12 12 11 10 9 8 7 7 7 5 4 5 5 4 5 4 3 3 3 2 1 1 1 3 4 4 5 5 5 4 4 4 4
5 3 5 4 0 1 3 3 5 3 3 8 11 12 13 13 13 12 11 10 9 9 7 7 7 5 5 5 5 5 5 5 4 3 3 2 1 1 3 4 3 4 5 5 5 4 4 4 4
5 6 5 4 3 2 3 3 4 3 4 8 12 14 13 12 11 11 10 10 9 8 7 7 7 7 5 6 5 5 4 4 4 4 3 3 2 2 3 4 4 4 4 4 4 3 3 5 4
3 3 4 4 4 4 2 5 6 9 9 11 13 14 14 14 13 12 10 9 8 7 7 7 6 6 5 6 5 6 4 4 4 4 3 3 3 3 3 3 3 3 4 3 4 4 4 5 5
5 5 6 5 3 3 2 6 6 8 9 10 11 12 12 13 12 11 10 9 8 8 8 7 6 6 6 6 6 5 5 4 4 4 3 3 3 3 3 3 3 3 4 4 4 4 4 4 4
Wind_Direction
319 322 85 66 58 55 60 15 131 93 72 64 73 79 79 61 80 117 147 129 121 117 111 107 106 104 102 100 97 94 92 92 92 90 89 87 85 82 79 78 79 77 75 72 70 71 71 68 64
328 335 63 62 83 83 65 146 101 98 132 119 80 73 74 72 80 108 125 131 123 115 112 111 110 107 105 101 98 96 95 94 93 92 90 88 85 82 79 76 76 75 74 71 69 69 67 62 57
317 7 79 71 97 148 158 152 117 93 103 96 84 59 66 93 101 121 143 135 119 111 112 117 114 110 108 105 103 100 98 96 95 94 91 90 87 84 80 77 76 74 72 69 65 61 59 56 50
41 40 56 73 85 172 152 154 127 104 75 61 92 71 57 69 117 132 135 127 118 115 117 120 117 114 111 109 107 104 102 100 99 97 94 92 89 85 82 81 77 74 70 65 60 56 52 49 44
69 72 58 67 80 74 104 123 112 95 81 79 90 91 70 60 115 129 133 127 125 122 122 122 119 117 117 116 114 111 109 108 106 101 97 93 89 85 82 80 77 74 68 61 52 46 40 39 33
56 66 79 88 85 67 64 90 97 93 104 103 101 104 102 124 126 132 132 133 133 132 129 127 126 125 122 122 122 119 117 115 113 108 101 96 90 87 84 81 76 71 64 54 39 25 20 16 10
100 87 106 123 99 84 101 97 98 120 120 114 121 106 122 141 140 136 134 130 129 135 135 135 136 135 134 133 132 132 131 128 124 119 112 104 88 79 85 81 77 68 49 31 13 2 2 356 354
123 97 76 87 103 91 117 96 91 108 104 117 113 126 148 162 143 126 124 126 130 137 143 150 153 151 150 148 146 146 144 144 142 138 127 89 54 53 63 59 47 39 17 359 348 339 339 343 350
91 79 96 133 131 122 103 91 67 70 95 79 76 116 141 143 128 120 120 124 136 146 156 164 168 169 172 169 168 159 155 164 172 320 315 333 338 321 317 302 295 336 341 334 331 328 332 341 348
82 109 159 178 145 139 102 102 107 93 90 88 90 102 122 128 130 134 139 143 153 163 174 176 179 183 185 182 165 154 131 28 30 4 334 112 134 310 318 315 317 341 344 340 336 337 340 347 345
108 141 148 120 133 126 101 76 91 116 115 140 137 138 137 133 136 142 146 151 160 165 167 172 172 173 162 139 133 127 88 53 36 41 77 98 81 56 38 13 354 350 349 352 348 349 350 352 345
100 109 123 129 124 113 116 105 88 108 148 150 142 142 141 140 148 151 151 151 145 139 146 153 157 143 134 125 119 119 99 78 62 63 78 84 73 54 41 21 5 358 357 0 2 6 6 7 1
95 119 98 100 93 108 101 101 108 114 134 134 135 136 141 145 150 153 148 140 126 117 118 130 125 118 116 109 107 101 94 86 73 64 68 81 81 59 41 26 23 14 13 18 18 19 25 19 24
129 111 107 99 103 105 109 106 105 142 140 139 142 146 147 147 150 143 138 133 127 122 124 114 113 118 107 100 100 99 87 79 69 64 65 71 72 67 51 34 25 20 24 35 43 40 37 20 30
100 89 79 91 114 127 104 84 129 155 144 141 147 153 147 148 146 148 152 147 140 135 127 116 119 104 98 98 99 95 90 81 69 65 66 66 66 66 64 47 29 20 28 35 39 38 37 31 33
58 70 95 244 139 145 107 140 175 157 144 142 145 149 145 149 150 151 154 149 145 134 123 119 119 104 97 96 97 93 90 83 75 70 63 59 59 63 63 51 30 27 36 38 38 36 34 26 26
40 113 160 215 207 144 126 161 189 158 147 147 146 144 144 143 142 146 154 151 144 135 127 120 114 107 98 94 90 86 85 80 77 71 62 58 60 62 62 49 33 38 39 30 33 39 40 32 21
173 158 177 194 206 128 129 160 172 166 154 156 154 152 151 151 157 154 151 148 136 129 121 116 108 102 100 89 81 72 67 60 67 67 62 61 58 60 62 53 39 43 42 30 31 34 32 35 19
148 144 160 206 169 129 144 160 181 174 161 164 163 163 161 163 165 152 145 142 132 126 121 123 116 110 108 100 101 99 88 66 54 58 63 60 57 58 63 56 41 41 46 35 30 34 34 23 19
142 133 140 169 158 141 150 182 194 184 180 181 175 174 167 161 154 149 141 139 139 137 132 132 131 130 125 124 127 130 127 102 72 47 49 51 52 49 56 56 46 44 45 36 34 41 41 22 29
158 152 175 169 101 71 104 341 236 219 182 175 174 171 170 166 164 160 150 145 142 142 146 144 146 136 127 119 102 85 65 50 38 32 23 21 40 45 48 51 50 44 50 42 33 47 65 41 17
181 187 172 155 119 218 150 203 258 215 199 187 177 171 176 171 163 161 154 151 148 151 147 142 144 134 126 121 117 117 119 122 158 159 17 15 36 43 49 51 55 50 45 38 29 54 65 77 38
182 166 144 131 127 74 92 154 271 198 206 205 187 179 179 174 168 166 161 156 150 147 142 141 134 127 123 121 124 121 118 126 106 75 59 33 20 33 49 57 58 53 45 41 44 49 56 66 75
123 93 61 56 71 343 230 179 259 212 206 199 190 183 178 175 170 163 158 147 143 138 136 134 134 136 132 126 126 128 130 125 111 91 74 40 14 14 35 55 56 55 51 49 51 55 59 54 60
93 96 59 19 22 246 239 183 241 233 207 193 184 182 176 174 167 161 157 154 148 141 143 141 140 144 143 135 134 138 141 137 135 133 119 98 52 22 16 47 50 48 48 54 57 56 51 50 56
161 142 153 181 215 275 275 222 258 259 203 181 172 171 170 172 170 167 165 160 157 153 151 148 147 148 149 144 143 138 136 131 132 138 140 137 141 155 54 62 57 53 53 56 59 55 49 55 55
147 162 161 136 0 301 284 289 320 7 119 152 157 160 170 174 171 169 166 162 160 159 162 159 151 145 145 145 138 131 131 127 128 125 121 126 144 97 75 72 66 54 51 55 61 55 46 56 52
151 148 112 132 167 248 285 267 230 223 190 166 165 171 174 170 167 166 166 166 166 166 164 156 152 150 144 140 139 135 130 129 125 113 109 107 102 78 81 73 65 55 47 52 59 51 40 49 37
141 144 142 143 164 166 237 269 225 203 190 180 180 177 172 170 171 170 169 167 163 157 153 149 151 142 137 136 127 120 118 117 110 104 105 107 99 90 91 87 75 62 48 46 55 49 48 50 37
170 182 158 157 202 173 183 265 257 201 187 176 176 173 171 169 168 165 162 157 153 155 155 154 157 149 148 141 126 120 114 109 103 102 98 102 104 93 92 85 78 65 55 53 60 55 51 54 42
Height
1515 1514 1514 1515 1518 1526 1528 1522 1517 1516 1517 1518 1518 1519 1522 1526 1530 1538 1536 1535 1536 1536 1537 1537 1537 1538 1538 1538 1539 1539 1539 1539 1539 1540 1540 1540 1540 1540 1540 1540 1540 1540 1540 1540 1540 1540 1540 1540 1540
1515 1514 1516 1515 1523 1535 1531 1521 1518 1516 1518 1518 1519 1522 1524 1528 1531 1533 1534 1536 1537 1537 1538 1538 1539 1539 1539 1539 1540 1540 1540 1540 1540 1541 1541 1541 1541 1541 1541 1541 1541 1541 1541 1540 1540 1540 1540 1540 1540
1515 1514 1516 1517 1525 1532 1528 1520 1518 1517 1518 1518 1522 1524 1527 1531 1532 1534 1535 1537 1538 1539 1539 1540 1540 1540 1540 1540 1541 1541 1541 1541 1541 1542 1542 1541 1541 1541 1541 1541 1541 1541 1541 1541 1541 1541 1540 1540 1540
1515 1515 1516 1522 1525 1522 1520 1518 1517 1518 1519 1520 1522 1527 1530 1533 1533 1535 1536 1538 1539 1540 1541 1541 1541 1541 1542 1542 1542 1542 1542 1542 1542 1543 1543 1542 1542 1542 1542 1542 1542 1541 1541 1541 1541 1541 1541 1541 1541
1515 1515 1521 1527 1524 1520 1518 1517 1517 1518 1521 1523 1524 1529 1533 1534 1535 1536 1538 1539 1540 1541 1542 1542 1543 1543 1543 1543 1543 1543 1543 1544 1544 1544 1544 1543 1543 1543 1543 1542 1542 1542 1542 1542 1541 1541 1541 1541 1541
1515 1517 1529 1532 1526 1521 1519 1519 1518 1521 1524 1526 1527 1530 1535 1536 1537 1538 1540 1541 1542 1542 1543 1544 1544 1544 1544 1544 1545 1545 1545 1545 1545 1545 1545 1545 1544 1544 1543 1543 1543 1543 1542 1542 1542 1542 1541 1542 1541
1517 1521 1528 1529 1528 1524 1522 1520 1520 1522 1525 1527 1528 1531 1535 1538 1539 1540 1541 1542 1543 1544 1545 1545 1546 1546 1546 1546 1547 1547 1547 1547 1547 1547 1547 1546 1546 1545 1544 1544 1544 1543 1543 1543 1542 1542 1542 1542 1542
1516 1521 1527 1529 1529 1526 1522 1521 1523 1523 1526 1528 1529 1531 1535 1538 1540 1542 1543 1544 1545 1546 1547 1547 1547 1548 1548 1548 1549 1549 1549 1549 1548 1548 1548 1547 1547 1546 1546 1545 1545 1544 1544 1544 1543 1543 1542 1542 1542
1516 1525 1531 1528 1527 1526 1522 1522 1524 1525 1526 1528 1529 1531 1535 1538 1541 1543 1544 1546 1547 1548 1548 1549 1549 1549 1550 1550 1550 1550 1550 1550 1550 1549 1549 1548 1548 1547 1547 1546 1546 1545 1545 1544 1544 1543 1543 1543 1542
1517 1528 1527 1523 1523 1523 1523 1523 1525 1527 1528 1530 1532 1534 1537 1539 1542 1543 1545 1546 1547 1548 1549 1550 1550 1551 1551 1552 1552 1552 1552 1551 1551 1550 1550 1549 1549 1548 1548 1548 1547 1547 1546 1545 1544 1544 1544 1543 1543
1518 1524 1522 1522 1521 1522 1523 1524 1525 1527 1530 1531 1532 1535 1538 1541 1543 1544 1546 1547 1548 1549 1550 1551 1552 1552 1553 1553 1553 1553 1553 1552 1552 1551 1551 1550 1550 1549 1549 1549 1548 1548 1547 1546 1545 1545 1544 1543 1543
1520 1521 1521 1522 1522 1523 1523 1525 1527 1528 1530 1532 1534 1536 1539 1541 1543 1545 1547 1548 1549 1550 1551 1552 1553 1553 1554 1554 1554 1554 1554 1553 1553 1553 1552 1551 1551 1550 1550 1549 1549 1548 1548 1547 1546 1545 1545 1544 1543
1521 1522 1522 1522 1523 1524 1525 1526 1528 1531 1532 1534 1536 1538 1540 1542 1544 1546 1548 1549 1550 1551 1552 1553 1554 1555 1555 1555 1555 1555 1555 1555 1554 1554 1553 1552 1552 1551 1550 1550 1550 1549 1548 1547 1547 1546 1545 1545 1544
1522 1522 1524 1524 1525 1526 1526 1529 1530 1533 1534 1536 1538 1540 1542 1543 1545 1547 1548 1550 1551 1552 1553 1554 1555 1556 1556 1556 1556 1556 1556 1556 1555 1555 1554 1553 1552 1552 1551 1551 1550 1549 1549 1548 1547 1547 1546 1545 1545
1522 1524 1527 1526 1526 1528 1528 1533 1532 1533 1535 1537 1539 1541 1543 1544 1546 1547 1549 1550 1552 1553 1554 1555 1556 1557 1557 1557 1557 1557 1557 1557 1556 1555 1555 1554 1553 1553 1552 1551 1551 1550 1549 1549 1548 1547 1547 1546 1545
1524 1529 1534 1529 1527 1528 1532 1540 1534 1534 1535 1538 1540 1542 1544 1545 1547 1548 1550 1551 1552 1553 1554 1555 1557 1557 1558 1558 1558 1558 1558 1558 1557 1556 1556 1555 1554 1554 1553 1552 1551 1551 1550 1549 1549 1548 1547 1547 1546
1531 1537 1536 1532 1527 1528 1532 1538 1534 1535 1536 1538 1540 1542 1544 1546 1547 1549 1550 1551 1553 1554 1555 1556 1557 1558 1558 1559 1559 1559 1559 1559 1558 1557 1557 1556 1555 1554 1554 1553 1552 1552 1551 1550 1549 1549 1548 1548 1547
1537 1536 1535 1533 1528 1529 1533 1535 1534 1535 1536 1538 1540 1542 1543 1545 1547 1549 1550 1552 1553 1555 1556 1557 1557 1558 1559 1559 1560 1560 1560 1559 1559 1558 1558 1557 1556 1555 1554 1554 1553 1552 1552 1551 1550 1550 1549 1549 1548
1527 1532 1535 1532 1527 1530 1534 1535 1534 1535 1537 1538 1539 1541 1543 1545 1547 1549 1551 1552 1554 1555 1556 1557 1558 1559 1559 1560 1560 1560 1560 1560 1560 1559 1559 1558 1557 1556 1556 1555 1554 1553 1552 1552 1551 1551 1550 1550 1549
1528 1534 1534 1531 1527 1530 1534 1535 1534 1533 1535 1536 1538 1540 1542 1545 1547 1549 1551 1552 1553 1555 1556 1557 1558 1559 1560 1560 1561 1561 1561 1561 1560 1560 1560 1559 1558 1558 1557 1556 1555 1554 1553 1553 1552 1552 1551 1551 1550
1529 1533 1533 1533 1531 1531 1536 1541 1536 1534 1534 1535 1537 1538 1541 1543 1546 1548 1550 1552 1553 1555 1556 1557 1558 1559 1560 1560 1561 1561 1561 1561 1561 1561 1561 1560 1560 1559 1558 1557 1556 1555 1554 1554 1553 1553 1552 1552 1551
1531 1526 1527 1530 1537 1544 1540 1553 1541 1535 1534 1534 1536 1537 1540 1543 1545 1547 1549 1551 1553 1555 1556 1557 1558 1559 1560 1561 1561 1561 1562 1562 1562 1562 1562 1561 1561 1560 1559 1558 1557 1556 1555 1555 1554 1554 1553 1553 1552
1524 1522 1525 1530 1537 1544 1542 1550 1544 1534 1536 1533 1533 1535 1538 1540 1543 1545 1548 1550 1552 1554 1556 1557 1558 1559 1560 1561 1561 1562 1562 1563 1563 1563 1562 1562 1562 1561 1560 1559 1558 1557 1557 1556 1555 1555 1554 1554 1553
1520 1525 1530 1535 1542 1554 1544 1548 1546 1535 1529 1528 1529 1532 1535 1538 1541 1544 1548 1550 1552 1554 1556 1557 1558 1559 1560 1561 1562 1562 1563 1563 1563 1563 1563 1562 1562 1562 1561 1560 1559 1559 1558 1557 1556 1556 1555 1555 1554
1523 1537 1551 1554 1559 1556 1540 1542 1538 1522 1519 1520 1524 1528 1532 1536 1540 1543 1546 1548 1551 1553 1555 1557 1558 1559 1560 1561 1562 1562 1563 1563 1563 1563 1563 1563 1562 1562 1561 1561 1560 1559 1559 1558 1557 1557 1556 1556 1555
1526 1534 1552 1560 1561 1553 1540 1541 1529 1515 1514 1516 1520 1525 1530 1534 1538 1541 1544 1547 1550 1552 1554 1556 1557 1558 1560 1561 1561 1562 1563 1563 1563 1564 1563 1563 1563 1562 1562 1561 1561 1560 1559 1559 1559 1558 1557 1557 1556
1526 1533 1534 1546 1549 1554 1546 1536 1524 1515 1515 1517 1521 1525 1529 1532 1536 1539 1543 1546 1549 1551 1553 1555 1556 1558 1559 1560 1561 1562 1563 1563 1564 1564 1564 1563 1563 1563 1563 1562 1561 1561 1560 1560 1559 1559 1558 1558 1557
1519 1525 1537 1545 1554 1558 1548 1540 1534 1523 1520 1519 1520 1524 1527 1531 1535 1538 1541 1545 1548 1550 1553 1554 1556 1557 1559 1560 1561 1562 1563 1564 1564 1564 1564 1564 1564 1563 1563 1563 1562 1561 1561 1561 1560 1560 1559 1559 1558
1522 1525 1531 1540 1543 1553 1555 1544 1518 1516 1515 1517 1518 1521 1524 1528 1532 1536 1540 1543 1547 1549 1552 1554 1556 1557 1559 1560 1561 1562 1563 1563 1564 1564 1564 1564 1564 1564 1563 1563 1563 1562 1562 1561 1561 1560 1560 1559 1558
1515 1520 1527 1540 1543 1543 1548 1540 1509 1510 1511 1513 1517 1520 1523 1527 1531 1535 1538 1542 1545 1548 1551 1553 1555 1557 1558 1559 1561 1562 1562 1563 1563 1564 1564 1564 1564 1564 1564 1563 1563 1562 1562 1561 1561 1560 1560 1559 1558